Regional Weather Roundup
Issued by NWS

Home | Current Version | Previous Version | Text Only | Print | Product List | Glossary On
Versions: 1 2 3 4 5 6 7 8 9 10 11 12 13 14 15 16 17 18 19 20 21 22 23 24 25 26 27 28 29 30 31 32 33 34 35 36 37 38 39 40 41 42 43 44 45 46 47 48 49 50
000
ASUS43 KLOT 261200
RWRIL

ILLINOIS REGIONAL WEATHER ROUNDUP
NATIONAL WEATHER SERVICE CHICAGO/ROMEOVILLE IL
600 AM CST MON JAN 26 2015

NOTE: "FAIR" INDICATES FEW OR NO CLOUDS BELOW 12,000 FEET WITH NO
SIGNIFICANT WEATHER AND/OR OBSTRUCTIONS TO VISIBILITY.

* THESE STATIONS ARE NOT UNDER NWS QUALITY CONTROL. THEY ALSO MAY NOT
  REPORT WEATHER SUCH AS PRECIPITATION OR FOG.

ILZ001-002-007-009-015-016-024-261300-
NORTHWEST ILLINOIS

CITY           SKY/WX    TMP DP  RH WIND       PRES   REMARKS
MOLINE         CLOUDY    18  13  80 SE5       29.97F WCI  11
6HR MIN TEMP:  12; 6HR MAX TEMP:  20;

STERLING*      MOCLDY    18  12  79 CALM      29.97F
$$

ILZ003-004-008-010-011-017-018-261300-
NORTH CENTRAL ILLINOIS

CITY           SKY/WX    TMP DP  RH WIND       PRES   REMARKS
ROCKFORD       CLOUDY    16  10  77 CALM      29.98F
6HR MIN TEMP:  12; 6HR MAX TEMP:  17;

$$

ILZ005-006-012>014-019>023-261300-
NORTHEAST ILLINOIS

CITY           SKY/WX    TMP DP  RH WIND       PRES   REMARKS
CHICAGO-OHARE  MOCLDY    16  12  84 NW6       29.95F WCI   7
6HR MIN TEMP:  15; 6HR MAX TEMP:  24;

CHICAGO-MIDWAY PTCLDY    23  16  74 N3        29.96F
6HR MIN TEMP:  22; 6HR MAX TEMP:  26;

AURORA         PTCLDY    14  10  84 CALM      29.98R
6HR MIN TEMP:  13; 6HR MAX TEMP:  18;

WAUKEGAN       CLOUDY    17  13  84 CALM      29.95F
6HR MIN TEMP:  17; 6HR MAX TEMP:  23;

DUPAGE AIRPORT PTCLDY    14  10  84 NW6       29.96S WCI   5
6HR MIN TEMP:  13; 6HR MAX TEMP:  19;

WHEELING       PTCLDY    16  12  84 NW3       29.98S
6HR MIN TEMP:  16; 6HR MAX TEMP:  24;

NORTHERLY ISL    N/A     23  15  71 N5          N/A  WCI  17
$$

LMZ740>746-261300-
SOUTHERN LAKE MICHIGAN

STATION/POSITION SKY/WX   TEMP    WIND        PRES    VSBY  WAVE
                          AIR SEA DIR/SP/G                  HT/PER
                          (F)     (DEG/KT/KT) (MB)    (MI)  (FT/S)
WAUKEGAN HARBOR            20        CALM       N/A
HARRISON CRIB              23     360/  3/  6   N/A
BURNHAM HARBOR             22      20/  4/  6   N/A
CALUMET HARBOR             22      20/  4/  6   N/A
MICHIGAN CITY              17      60/  6/  8   N/A
$$

ILZ025>027-034>036-040-047-049-050-058-095>099-261300-
WEST-CENTRAL ILLINOIS

CITY           SKY/WX    TMP DP  RH WIND       PRES   REMARKS
QUINCY         CLOUDY    26  22  84 W3        30.03R
$$

ILZ028>032-037-038-041>044-048-051>054-059>061-261300-
CENTRAL ILLINOIS

CITY           SKY/WX    TMP DP  RH WIND       PRES   REMARKS
DECATUR        CLOUDY    23  21  92 NW7       29.98F WCI  15
PEORIA         MOCLDY    20  14  77 NW6       30.00S WCI  12
6HR MIN TEMP:  20; 6HR MAX TEMP:  23;

SPRINGFIELD    CLEAR     21  17  84 W6        30.02S WCI  13
6HR MIN TEMP:  20; 6HR MAX TEMP:  26;

TAYLORVILLE    NOT AVBL
$$

ILZ033-039-045-046-055>057-062-063-261300-
EAST-CENTRAL ILLINOIS

CITY           SKY/WX    TMP DP  RH WIND       PRES   REMARKS
CHAMPAIGN      CLOUDY    26  22  84 NW9       29.95F WCI  17
MATTOON        CLOUDY    26  21  81 NW12      29.96S WCI  16
$$

ILZ079-100>102-261300-
SOUTHWEST ILLINOIS

CITY           SKY/WX    TMP DP  RH WIND       PRES   REMARKS
BELLEVILLE     CLEAR     22  20  92 NW6       30.03F WCI  15
CAHOKIA*       CLEAR     27  22  81 W6        30.05S WCI  20
$$

ILZ064>066-069>071-074>076-080>082-084>086-088>090-092>094-261300-
SOUTH-CENTRAL ILLINOIS

CITY           SKY/WX    TMP DP  RH WIND       PRES   REMARKS
CARBONDALE     PTCLDY    27  21  78 NW10      30.04R WCI  17
6HR MIN TEMP:  27; 6HR MAX TEMP:  33;

MT. VERNON     CLOUDY    28  19  69 N3        30.02R
$$

ILZ067-068-072-073-078-083-087-091-261300-
SOUTHEAST ILLINOIS

CITY           SKY/WX    TMP DP  RH WIND       PRES   REMARKS
LAWRENCEVILLE  CLOUDY    29  24  82 NW13      29.98R WCI  19
$$

ABBREVIATIONS USED IN REMARKS
   TC - TEMPERATURE IN CELSIUS
  WCI - WIND CHILL INDEX
   HX - HEAT INDEX
  VSB - VISIBILITY
$$




USA.gov is the U.S. government's official web portal to all federal, state and local government web resources and services.